This is the latest recevied weather packets stored in our database for station/object KO6MEX-13. If no packets are shown the sender has not sent any weather packets the latest 10 day(s).
| Time | Temp. | Humidity | Pressure | Rain* | Wind** | Luminosity | Snow |
|---|---|---|---|---|---|---|---|
| 1777481745 | 18.33° C | 64% | 1020.7 hPa | 0 mm | - | 38 W/m² | - |
| 1777481442 | 18.33° C | 63% | 1020.7 hPa | 0 mm | - | 37 W/m² | - |
| 1777481138 | 18.89° C | 63% | 1020.5 hPa | 0 mm | - | 36 W/m² | - |
| 1777480835 | 18.89° C | 61% | 1020.6 hPa | 0 mm | - | 35 W/m² | - |
| 1777480532 | 18.89° C | 63% | 1020.5 hPa | 0 mm | - | 35 W/m² | - |
| 1777480228 | 18.89° C | 64% | 1020.5 hPa | 0 mm | - | 35 W/m² | - |
| 1777479925 | 18.89° C | 63% | 1020.8 hPa | 0 mm | - | 33 W/m² | - |
| 1777479622 | 19.44° C | 61% | 1020.5 hPa | 0 mm | - | 33 W/m² | - |
| 1777479320 | 19.44° C | 56% | 1020.7 hPa | 0 mm | - | 32 W/m² | - |
| 1777479015 | 19.44° C | 53% | 1020.9 hPa | 0 mm | - | 32 W/m² | - |
| 1777478713 | 18.89° C | 54% | 1020.6 hPa | 0 mm | - | 31 W/m² | - |
| 1777478409 | 18.89° C | 56% | 1020.8 hPa | 0 mm | - | 31 W/m² | - |
| 1777478105 | 18.33° C | 55% | 1020.6 hPa | 0 mm | - | 31 W/m² | - |
| 1777477802 | 18.33° C | 57% | 1020.7 hPa | 0 mm | - | 29 W/m² | - |
| 1777477497 | 17.78° C | 59% | 1020.7 hPa | 0 mm | - | 29 W/m² | - |
| 1777477194 | 17.22° C | 62% | 1020.5 hPa | 0 mm | - | 29 W/m² | - |
| 1777476890 | 16.11° C | 65% | 1020.8 hPa | 0 mm | - | 28 W/m² | - |
| 1777476589 | 16.11° C | 70% | 1020.8 hPa | 0 mm | - | 27 W/m² | - |
| 1777476285 | 15.56° C | 71% | 1020.9 hPa | 0 mm | - | 26 W/m² | - |
| 1777475980 | 15° C | 72% | 1020.9 hPa | 0 mm | - | 26 W/m² | - |
| 1777475677 | 13.89° C | 75% | 1020.7 hPa | 0 mm | - | 26 W/m² | - |
| 1777475374 | 13.33° C | 77% | 1020.9 hPa | 0 mm | - | 24 W/m² | - |
| 1777475074 | 13.33° C | 79% | 1021 hPa | 0 mm | - | 24 W/m² | - |
| 1777474771 | 12.78° C | 78% | 1021.1 hPa | 0 mm | - | 23 W/m² | - |
| 1777474467 | 12.78° C | 78% | 1021.1 hPa | 0 mm | - | 23 W/m² | - |
* Rain latest hour (hover to see other rain measurements)
** Current wind speed in m/s (hover to see current wind gust speed)